This demonstration page uses our WeatherBlox Daily Observations layout. Learn more.

Hourly Observations for April 4, 2017

Temp ( °F °C ) Dew Point ( °F °C ) Humidity (%) Winds ( mph kmh ) Pressure ( in mb ) Visibility ( mi km ) Precip ( " mm )
12:15 am 00:15 Clear 38 3.5 34 1.2 85 85 NNW 10 17 29.88 1012 10 16.0934 0 0
12:35 am 00:35 Clear 37 2.8 33 0.7 86 86 NW 6 9 29.88 1012 10 16.0934 0 0
12:55 am 00:55 Clear 35 1.5 32 0 90 90 NW 7 11 29.88 1012 10 16.0934 0 0
1:15 am 01:15 Clear 36 2 33 0.5 90 90 NW 7 11 29.88 1012 10 16.0934 0 0
1:35 am 01:35 Clear 36 2 33 0.4 89 89 NNW 9 15 29.85 1011 10 16.0934 0 0
1:55 am 01:55 Clear 37 2.5 33 0.5 87 87 NNW 8 13 29.85 1011 10 16.0934 0 0
2:15 am 02:15 Clear 36 2.2 33 0.3 87 87 NW 7 11 29.88 1012 10 16.0934 0 0
2:35 am 02:35 Clear 35 1.5 33 0.3 92 92 NW 7 11 29.85 1011 10 16.0934 0 0
2:55 am 02:55 Clear 35 1.5 32 0.1 91 91 NW 6 9 29.85 1011 10 16.0934 0 0
3:15 am 03:15 Clear 35 1.6 33 0.3 91 91 NNW 9 15 29.85 1011 10 16.0934 0 0
3:35 am 03:35 Clear 34 1.3 32 0.1 92 92 WNW 6 9 29.85 1011 10 16.0934 0 0
3:55 am 03:55 Clear 34 1.3 32 0.1 92 92 WNW 6 9 29.88 1012 10 16.0934 0 0
4:15 am 04:15 Clear 35 1.5 32 0.2 91 91 NW 9 15 29.85 1011 10 16.0934 0 0
4:35 am 04:35 Clear 35 1.5 32 0.2 91 91 NW 8 13 29.88 1012 10 16.0934 0 0
4:55 am 04:55 Clear 35 1.8 33 0.3 90 90 WNW 6 9 29.88 1012 10 16.0934 0 0
5:15 am 05:15 Clear 35 1.9 33 0.3 89 89 WNW 7 11 29.88 1012 10 16.0934 0 0
5:35 am 05:35 Clear 36 2.2 33 0.6 89 89 NW 7 11 29.88 1012 10 16.0934 0 0
5:55 am 05:55 Clear 35 1.9 32 0.2 89 89 WNW 6 9 29.88 1012 10 16.0934 0 0
6:15 am 06:15 Clear 35 1.5 32 0.1 91 91 NW 5 7 29.91 1013 10 16.0934 0 0
6:35 am 06:35 Partly Cloudy 35 1.8 33 0.5 91 91 WNW 6 9 29.94 1014 10 16.0934 0 0
6:55 am 06:55 Mostly Cloudy 36 2.3 33 0.6 89 89 NW 7 11 29.94 1014 10 16.0934 0 0
7:15 am 07:15 Cloudy 37 2.7 34 1 89 89 NW 8 13 29.94 1014 10 16.0934 0 0
7:35 am 07:35 Mostly Cloudy 37 2.7 34 1 89 89 NW 9 15 29.94 1014 10 16.0934 0 0
7:55 am 07:55 Partly Cloudy 37 2.6 34 1 89 89 NNW 12 19 29.94 1014 10 16.0934 0 0
8:15 am 08:15 Sunny 37 2.7 34 1.1 89 89 NNW 13 20 29.94 1014 10 16.0934 0 0
8:35 am 08:35 Partly Cloudy 38 3.1 35 1.5 89 89 NNW 12 19 29.94 1014 10 16.0934 0 0
8:55 am 08:55 Partly Cloudy 38 3.6 35 1.8 88 88 NNW 10 17 29.94 1014 10 16.0934 0 0
9:15 am 09:15 Sunny 39 4.1 36 2.3 88 88 NNW 12 19 29.94 1014 10 16.0934 0 0
9:35 am 09:35 Sunny 40 4.6 37 2.5 86 86 N 8 13 29.97 1015 10 16.0934 0 0
9:55 am 09:55 Sunny 42 5.3 37 2.7 84 84 NNW 9 15 29.94 1014 10 16.0934 0 0
10:15 am 10:15 Sunny 43 6.1 37 3 81 81 N 9 15 29.94 1014 10 16.0934 0 0
10:35 am 10:35 Sunny 45 7.1 38 3.1 76 76 N 12 19 29.94 1014 10 16.0934 0 0
10:55 am 10:55 Sunny 46 8 38 3.2 72 72 N 12 19 29.94 1014 10 16.0934 0 0
11:15 am 11:15 Sunny 48 8.8 37 2.9 67 67 NNE 16 26 29.91 1013 10 16.0934 0 0
11:35 am 11:35 Sunny 49 9.3 35 1.9 60 60 NNE 20 31 29.88 1012 10 16.0934 0 0
11:55 am 11:55 Sunny 50 9.9 36 2 58 58 N 18 30 29.88 1012 10 16.0934 0 0
12:15 pm 12:15 Sunny 50 10 36 2.1 58 58 NNE 20 31 29.88 1012 10 16.0934 0 0
12:35 pm 12:35 Partly Cloudy 50 10.2 35 1.9 57 57 NNE 17 28 29.91 1013 10 16.0934 0 0
12:55 pm 12:55 Cloudy 51 10.5 35 1.8 55 55 NNE 17 28 29.91 1013 10 16.0934 0 0
1:15 pm 13:15 Cloudy 51 10.8 35 1.6 53 53 NNE 16 26 29.88 1012 10 16.0934 0 0
1:35 pm 13:35 Cloudy 52 11.1 34 1.2 51 51 NE 18 30 29.88 1012 10 16.0934 0 0
1:55 pm 13:55 Cloudy 52 11 34 1.3 52 52 NE 16 26 29.88 1012 10 16.0934 0 0
2:15 pm 14:15 Cloudy 52 11.1 34 1 50 50 NE 18 30 29.88 1012 10 16.0934 0 0
2:35 pm 14:35 Cloudy 53 11.4 33 0.7 48 48 NE 15 24 29.85 1011 10 16.0934 0 0
2:55 pm 14:55 Cloudy 53 11.6 33 0.5 47 47 NE 18 30 29.85 1011 10 16.0934 0 0
3:15 pm 15:15 Cloudy 53 11.5 33 0.7 48 48 ENE 14 22 29.83 1010 10 16.0934 0 0
3:35 pm 15:35 Cloudy 52 11.2 34 1.1 50 50 ENE 14 22 29.83 1010 10 16.0934 0 0
3:55 pm 15:55 Cloudy 51 10.7 34 1.2 52 52 ENE 10 17 29.85 1011 10 16.0934 0 0
4:15 pm 16:15 Cloudy 51 10.8 34 0.9 51 51 ENE 12 19 29.85 1011 10 16.0934 0 0
4:35 pm 16:35 Cloudy 51 10.8 34 0.9 51 51 NE 10 17 29.85 1011 10 16.0934 0 0
4:55 pm 16:55 Cloudy 51 10.8 33 0.6 50 50 NE 14 22 29.8 1009 10 16.0934 0 0
5:15 pm 17:15 Cloudy 53 11.5 32 0.2 46 46 NNE 17 28 29.8 1009 10 16.0934 0 0
5:35 pm 17:35 Cloudy 52 11.3 33 0.5 48 48 NNE 14 22 29.83 1010 10 16.0934 0 0
5:55 pm 17:55 Cloudy 53 11.5 32 0 45 45 NNE 13 20 29.83 1010 10 16.0934 0 0
6:15 pm 18:15 Cloudy 53 11.5 32 0 45 45 NNE 18 30 29.83 1010 10 16.0934 0 0
6:35 pm 18:35 Cloudy 53 11.5 31 -0.3 44 44 NE 15 24 29.85 1011 10 16.0934 0 0
6:55 pm 18:55 Cloudy 52 11.3 32 0 46 46 NE 15 24 29.88 1012 10 16.0934 0 0
7:15 pm 19:15 Cloudy 52 11.1 32 -0.1 46 46 NE 15 24 29.88 1012 10 16.0934 0 0
7:35 pm 19:35 Cloudy 51 10.6 32 0 48 48 NNE 15 24 29.88 1012 10 16.0934 0 0
7:55 pm 19:55 Cloudy 50 10.2 33 0.5 51 51 NNE 12 19 29.91 1013 10 16.0934 0 0
8:15 pm 20:15 Cloudy 49 9.7 34 1 55 55 NNE 12 19 29.91 1013 10 16.0934 0 0
8:35 pm 20:35 Cloudy 48 9.1 35 1.5 59 59 N 7 11 29.91 1013 10 16.0934 0 0
8:55 pm 20:55 Cloudy 47 8.6 35 1.7 62 62 N 8 13 29.91 1013 10 16.0934 0 0
9:15 pm 21:15 Cloudy 48 9 34 1.3 59 59 N 8 13 29.91 1013 10 16.0934 0 0
9:35 pm 21:35 Cloudy 48 8.8 34 1.1 59 59 N 8 13 29.94 1014 10 16.0934 0 0
9:55 pm 21:55 Cloudy 47 8.5 34 1 60 60 N 9 15 29.97 1015 10 16.0934 0 0
10:15 pm 22:15 Cloudy 47 8.6 33 0.7 58 58 N 8 13 30 1016 10 16.0934 0 0
10:35 pm 22:35 Cloudy 47 8.5 33 0.6 58 58 N 10 17 30 1016 10 16.0934 0 0
10:55 pm 22:55 Cloudy with Light Rain 47 8.3 35 1.5 63 63 N 10 17 30 1016 10 16.0934 0 0
11:15 pm 23:15 Cloudy 46 8 34 1.2 63 63 N 14 22 30 1016 10 16.0934 0 0
11:35 pm 23:35 Cloudy 47 8.4 34 1.1 60 60 N 17 28 30 1016 10 16.0934 0 0
11:55 pm 23:55 Cloudy 47 8.1 33 0.6 59 59 N 16 26 30 1016 10 16.0934 0 0

Powered by AerisWeather